When you browse on this site, cookies collect data to enhance your experience and personalize the content and advertising you see.
Visit our Privacy Policy to learn more. By continuing to use the site, you agree to this use of cookies and data.
  • En España
  • Lista de países
  • Para 7 días
  • Temperatura del agua
  • El tiempo en el mapa
  • Informadores
  • user-avatar
    Iniciar sesión

    Tiempo cada hora Santiago del Estero

    Hoy, 10 Diciembre, Martes

    Tiempo Temperatura Precipitaciones Viento Presión Humedad
    00:00 +27°C° 0 mm 3 mps 739 mmHg 38%
    01:00 +26°C° 0 mm 2 mps 739 mmHg 43%
    02:00 +25°C° 0 mm 2 mps 739 mmHg 47%
    03:00 +25°C° 0 mm 2 mps 739 mmHg 49%
    04:00 +25°C° 0 mm 2 mps 739 mmHg 51%
    05:00 +24°C° 0 mm 2 mps 739 mmHg 53%
    06:00 +26°C° 0 mm 3 mps 739 mmHg 49%
    07:00 +28°C° 0 mm 3 mps 740 mmHg 45%
    08:00 +30°C° 0 mm 4 mps 741 mmHg 42%
    09:00 +33°C° 0 mm 4 mps 740 mmHg 38%
    10:00 +35°C° 0 mm 4 mps 740 mmHg 35%
    11:00 +37°C° 0 mm 4 mps 740 mmHg 32%
    12:00 +38°C° 0 mm 4 mps 739 mmHg 30%
    13:00 +39°C° 0 mm 3 mps 739 mmHg 27%
    14:00 +40°C° 0 mm 3 mps 738 mmHg 25%
    15:00 +40°C° 0 mm 3 mps 738 mmHg 25%
    16:00 +40°C° 0 mm 3 mps 737 mmHg 26%
    17:00 +40°C° 0 mm 4 mps 737 mmHg 26%
    18:00 +37°C° 0 mm 4 mps 737 mmHg 30%
    19:00 +35°C° 0 mm 4 mps 737 mmHg 35%
    20:00 +33°C° 0 mm 3 mps 737 mmHg 39%
    21:00 +31°C° 0 mm 3 mps 738 mmHg 40%
    22:00 +31°C° 0 mm 3 mps 738 mmHg 42%
    23:00 +30°C° 0 mm 3 mps 738 mmHg 43%

    Mañana, 11 Diciembre, Miércoles

    Tiempo Temperatura Precipitaciones Viento Presión Humedad
    00:00 +29°C° 0 mm 3 mps 738 mmHg 45%
    01:00 +29°C° 0 mm 3 mps 737 mmHg 46%
    02:00 +28°C° 0 mm 3 mps 737 mmHg 47%
    03:00 +28°C° 0 mm 3 mps 737 mmHg 48%
    04:00 +27°C° 0 mm 3 mps 736 mmHg 50%
    05:00 +27°C° 0 mm 3 mps 736 mmHg 51%
    06:00 +29°C° 0 mm 4 mps 736 mmHg 46%
    07:00 +32°C° 0 mm 5 mps 737 mmHg 41%
    08:00 +34°C° 0 mm 6 mps 737 mmHg 36%
    09:00 +36°C° 0 mm 6 mps 736 mmHg 33%
    10:00 +40°C° 0 mm 6 mps 736 mmHg 29%
    11:00 +42°C° 0 mm 6 mps 736 mmHg 25%
    12:00 +44°C° 0 mm 6 mps 735 mmHg 23%
    13:00 +45°C° 0 mm 6 mps 734 mmHg 20%
    14:00 +46°C° 0 mm 5 mps 733 mmHg 18%
    15:00 +46°C° 0 mm 5 mps 732 mmHg 17%
    16:00 +46°C° 0 mm 5 mps 732 mmHg 17%
    17:00 +45°C° 0 mm 4 mps 731 mmHg 17%
    18:00 +42°C° 0 mm 3 mps 731 mmHg 19%
    19:00 +38°C° 0 mm 3 mps 731 mmHg 22%
    20:00 +35°C° 0 mm 2 mps 732 mmHg 25%
    21:00 +35°C° 0 mm 2 mps 732 mmHg 25%
    22:00 +34°C° 0 mm 2 mps 733 mmHg 26%
    23:00 +32°C° 0 mm 2 mps 733 mmHg 27%

    Pasado mañana, 12 Diciembre, Jueves

    Tiempo Temperatura Precipitaciones Viento Presión Humedad
    00:00 +31°C° 0 mm 2 mps 733 mmHg 29%
    01:00 +30°C° 0 mm 1 mps 733 mmHg 31%
    02:00 +29°C° 0 mm 1 mps 733 mmHg 34%
    03:00 +28°C° 0 mm 3 mps 734 mmHg 34%
    04:00 +28°C° 0 mm 5 mps 734 mmHg 35%
    05:00 +28°C° 0 mm 7 mps 735 mmHg 35%
    06:00 +29°C° 0 mm 7 mps 736 mmHg 37%
    07:00 +31°C° 0 mm 8 mps 737 mmHg 39%
    08:00 +31°C° 0 mm 8 mps 738 mmHg 41%
    09:00 +33°C° 0 mm 8 mps 739 mmHg 37%
    10:00 +35°C° 0 mm 8 mps 739 mmHg 33%
    11:00 +36°C° 0 mm 7 mps 740 mmHg 29%
    12:00 +38°C° 0 mm 7 mps 739 mmHg 26%
    13:00 +39°C° 0 mm 7 mps 739 mmHg 23%
    14:00 +39°C° 0 mm 7 mps 739 mmHg 20%
    15:00 +39°C° 0 mm 7 mps 738 mmHg 20%
    16:00 +38°C° 0 mm 6 mps 738 mmHg 20%
    17:00 +38°C° 0 mm 6 mps 737 mmHg 20%
    18:00 +35°C° 0 mm 5 mps 738 mmHg 23%
    19:00 +33°C° 0 mm 4 mps 738 mmHg 27%
    20:00 +30°C° 0 mm 3 mps 739 mmHg 30%
    21:00 +29°C° 0 mm 3 mps 739 mmHg 30%
    22:00 +28°C° 0 mm 3 mps 740 mmHg 30%
    23:00 +28°C° 0 mm 3 mps 741 mmHg 29%

    13 Diciembre, Viernes

    Tiempo Temperatura Precipitaciones Viento Presión Humedad
    00:00 +27°C° 0 mm 3 mps 740 mmHg 32%
    01:00 +27°C° 0 mm 2 mps 740 mmHg 34%
    02:00 +27°C° 0 mm 2 mps 740 mmHg 36%
    03:00 +27°C° 0 mm 2 mps 740 mmHg 36%
    04:00 +27°C° 0 mm 2 mps 740 mmHg 37%
    05:00 +26°C° 0 mm 3 mps 740 mmHg 37%
    06:00 +26°C° 0 mm 3 mps 741 mmHg 36%
    07:00 +26°C° 0 mm 3 mps 741 mmHg 35%
    08:00 +27°C° 0 mm 3 mps 742 mmHg 34%
    09:00 +28°C° 0 mm 3 mps 742 mmHg 32%
    10:00 +29°C° 0 mm 3 mps 742 mmHg 31%
    11:00 +30°C° 0 mm 3 mps 742 mmHg 29%
    12:00 +33°C° 0 mm 3 mps 741 mmHg 29%
    13:00 +35°C° 0 mm 3 mps 740 mmHg 30%
    14:00 +36°C° 0 mm 3 mps 739 mmHg 30%
    15:00 +37°C° 0 mm 4 mps 738 mmHg 30%
    16:00 +37°C° 0 mm 4 mps 737 mmHg 30%
    17:00 +38°C° 0 mm 4 mps 736 mmHg 30%
    18:00 +36°C° 0 mm 4 mps 737 mmHg 33%
    19:00 +35°C° 0 mm 4 mps 737 mmHg 36%
    20:00 +34°C° 0 mm 4 mps 737 mmHg 39%
    21:00 +33°C° 0 mm 4 mps 737 mmHg 39%
    22:00 +33°C° 0 mm 4 mps 737 mmHg 39%
    23:00 +33°C° 0 mm 4 mps 737 mmHg 40%

    14 Diciembre, Sábado

    Tiempo Temperatura Precipitaciones Viento Presión Humedad
    00:00 +32°C° 0 mm 4 mps 737 mmHg 42%
    01:00 +30°C° 0 mm 4 mps 736 mmHg 45%
    02:00 +29°C° 0 mm 4 mps 736 mmHg 48%
    03:00 +29°C° 0 mm 4 mps 736 mmHg 52%
    04:00 +29°C° 0 mm 3 mps 736 mmHg 56%
    05:00 +28°C° 0 mm 3 mps 736 mmHg 61%
    06:00 +29°C° 0 mm 4 mps 736 mmHg 59%
    07:00 +32°C° 0 mm 4 mps 737 mmHg 58%
    08:00 +33°C° 0 mm 5 mps 737 mmHg 57%
    09:00 +35°C° 0 mm 4 mps 737 mmHg 50%
    10:00 +37°C° 0 mm 4 mps 737 mmHg 44%
    11:00 +39°C° 0 mm 3 mps 736 mmHg 38%
    12:00 +40°C° 0 mm 3 mps 736 mmHg 37%
    13:00 +40°C° 0 mm 3 mps 735 mmHg 35%
    14:00 +42°C° 0 mm 3 mps 734 mmHg 33%
    15:00 +42°C° 0 mm 3 mps 734 mmHg 32%
    16:00 +41°C° 0 mm 2 mps 733 mmHg 32%
    17:00 +42°C° 0 mm 2 mps 733 mmHg 31%
    18:00 +38°C° 0.3 mm 3 mps 734 mmHg 45%
    19:00 +34°C° 0.3 mm 5 mps 734 mmHg 60%
    20:00 +30°C° 0.3 mm 7 mps 735 mmHg 74%
    21:00 +28°C° 4.2 mm 6 mps 736 mmHg 80%
    22:00 +27°C° 4.2 mm 5 mps 736 mmHg 85%
    23:00 +26°C° 4.2 mm 4 mps 737 mmHg 90%

    15 Diciembre, Domingo

    Tiempo Temperatura Precipitaciones Viento Presión Humedad
    00:00 +26°C° 3.2 mm 4 mps 737 mmHg 91%
    01:00 +26°C° 3.2 mm 3 mps 737 mmHg 91%
    02:00 +25°C° 3.2 mm 3 mps 738 mmHg 91%
    03:00 +25°C° 0.2 mm 3 mps 738 mmHg 91%
    04:00 +25°C° 0.2 mm 3 mps 738 mmHg 91%
    05:00 +25°C° 0.2 mm 3 mps 738 mmHg 91%
    06:00 +26°C° 0.5 mm 4 mps 739 mmHg 90%
    07:00 +26°C° 0.5 mm 5 mps 740 mmHg 88%
    08:00 +26°C° 0.5 mm 6 mps 740 mmHg 87%
    09:00 +26°C° 0.6 mm 7 mps 741 mmHg 83%
    10:00 +26°C° 0.6 mm 8 mps 742 mmHg 80%
    11:00 +24°C° 0.6 mm 10 mps 743 mmHg 77%
    12:00 +24°C° 0.1 mm 9 mps 743 mmHg 75%
    13:00 +24°C° 0.1 mm 9 mps 743 mmHg 73%
    14:00 +24°C° 0.1 mm 9 mps 743 mmHg 71%
    15:00 +26°C° 0 mm 7 mps 742 mmHg 65%
    16:00 +27°C° 0 mm 6 mps 742 mmHg 59%
    17:00 +28°C° 0 mm 4 mps 742 mmHg 53%
    18:00 +27°C° 0 mm 4 mps 742 mmHg 58%
    19:00 +26°C° 0 mm 4 mps 742 mmHg 62%
    20:00 +24°C° 0 mm 3 mps 742 mmHg 67%
    21:00 +24°C° 0 mm 3 mps 742 mmHg 67%
    22:00 +24°C° 0 mm 3 mps 742 mmHg 68%
    23:00 +22°C° 0 mm 3 mps 742 mmHg 69%
    Mostrar más